Location: Charlottesville
(38.0290°N, 78.4770°W)
Time: 18:42:10
(UTC-04:00)

N. Korean satellite - Pass Details

Date: 10 October 2017
Orbit: 459 x 517 km, 97.2° (Epoch: 23 October)

Event Time Altitude Azimuth Distance (km) Brightness Sun altitude
Rises 19:21:27 0° 169° (S) 2,571 10.2 -8.4°
Reaches altitude 10° 19:23:32 10° 171° (S) 1,684 9.2 -8.8°
Maximum altitude 19:27:09 81° 258° (WSW) 499 6.7 -9.5°
Drops below altitude 10° 19:30:44 10° 346° (NNW) 1,664 9.4 -10.2°
Sets 19:32:47 0° 348° (NNW) 2,538 10.4 -10.6°
